Regional Weather Roundup
Issued by NWS

Home | Current Version | Previous Version | Graphics & Text | Print | Product List | Glossary On
Versions: 1 2 3 4 5 6 7 8 9 10 11 12 13 14 15 16 17 18 19 20 21 22 23 24 25 26 27 28 29 30 31 32 33 34 35 36 37 38 39 40 41 42 43 44 45 46 47 48 49 50
000
ASUS43 KOAX 242210
RWRNE

WEATHER ROUNDUP FOR NEBRASKA
NATIONAL WEATHER SERVICE OMAHA NE
500 PM CDT TUE MAY 24 2016

NOTES: SATELLITE DATA IS BEING USED TO AUGMENT CLOUD COVER ABOVE
       12000 FEET.
       "FAIR" INDICATES FEW OR NO CLOUDS BELOW 12,000 FEET WITH NO
       SIGNIFICANT WEATHER AND/OR OBSTRUCTIONS TO VISIBILITY.

  * THESE STATIONS DO NOT REPORT WEATHER SUCH AS RAIN...SNOW OR FOG.

NEZ001>004-019>022-054>056-242300-
NEBRASKA PANHANDLE

CITY           SKY/WX    TMP DP  RH WIND       PRES   REMARKS
SCOTTSBLUFF    MOSUNNY   77  46  33 S21G29    29.81F
ALLIANCE       MOSUNNY   77  47  34 S25G31    29.82F
CHADRON        CLOUDY    77  47  34 S18       29.78F
KIMBALL        CLOUDY    69  44  40 SE14G23   29.88S
SIDNEY         CLOUDY    74  51  44 SE18G26   29.86F
$$

NEZ057>060-069>072-079>082-242300-
SOUTHWEST NEBRASKA

CITY           SKY/WX    TMP DP  RH WIND       PRES   REMARKS
NORTH PLATTE   MOSUNNY   79  57  46 S10       29.84F
IMPERIAL       MOSUNNY   74  59  59 S18       29.83F
LEXINGTON      MOSUNNY   78  60  53 S12       29.86F
MCCOOK         CLOUDY    75  61  61 S13G23    29.85F
OGALLALA       PTSUNNY   76  54  46 SE17G23   29.84F
$$

NEZ005>010-023>029-035>040-094-242300-
NORTH CENTRAL NEBRASKA

CITY           SKY/WX    TMP DP  RH WIND       PRES   REMARKS
VALENTINE      SUNNY     81  46  29 SE12      29.83F
AINSWORTH      SUNNY     81  49  33 SE9       29.85F
BROKEN BOW     SUNNY     80  55  42 SE10      29.86F
O`NEILL        SUNNY     83  48  29 SE3       29.86F
ORD            SUNNY     82  54  37 SE9       29.84F
THEDFORD       SUNNY     81  50  33 SE16      29.86F
$$

NEZ041-046>049-061>064-073>077-083>087-242300-
SOUTH CENTRAL NEBRASKA

CITY           SKY/WX    TMP DP  RH WIND       PRES   REMARKS
GRAND ISLAND   SUNNY     79  59  50 SE7       29.88F
AURORA         SUNNY     80  58  47 S5        29.88S
HASTINGS       SUNNY     79  61  53 S8G18     29.87F
HEBRON         MOSUNNY   82  59  44 S9        29.87F
HOLDREGE       MOSUNNY   78  57  48 SE12G18   29.86F
KEARNEY *      SUNNY     81  57  44 S12G21    29.87F
YORK           MOSUNNY   81  59  47 CALM      29.88F
$$

NEZ011>018-030>034-042>045-242300-
NORTHEAST NEBRASKA

CITY           SKY/WX    TMP DP  RH WIND       PRES   REMARKS
NORFOLK        SUNNY     85  53  33 SE7       29.84F
ALBION         SUNNY     82  52  35 S6        29.86S
BLAIR          MOSUNNY   81  63  55 E8        29.88F
FREMONT        SUNNY     81  58  46 SE8       29.88S
TEKAMAH        SUNNY     83  61  47 S6        29.86F
WAYNE          MOSUNNY   84  61  46 E10       29.85F
$$

NEZ050>053-065>068-078-088>093-242300-
SOUTHEAST NEBRASKA

CITY           SKY/WX    TMP DP  RH WIND       PRES   REMARKS
LINCOLN        SUNNY     81  60  48 SW7       29.88F
OMAHA EPPLEY   MOSUNNY   81  59  47 SE7       29.88F
BEATRICE       MOSUNNY   80  61  52 SW5       29.88F
FALLS CITY     SUNNY     84  63  49 S6        29.87F
NEBRASKA CITY  SUNNY     79  61  52 CALM      29.89F
PLATTSMOUTH    SUNNY     82  61  48 CALM      29.89F
$$

NEZ044-045-051>053-067-242300-
OMAHA AREA

CITY           SKY/WX    TMP DP  RH WIND       PRES   REMARKS
OMAHA EPPLEY   MOSUNNY   81  59  47 SE7       29.88F
BLAIR          MOSUNNY   81  63  55 E8        29.88F
FREMONT        SUNNY     81  58  46 SE8       29.88S
MILLARD        SUNNY     82  58  44 S7        29.88S
OFFUTT AFB     SUNNY     81  61  50 VRB2      29.87F
PLATTSMOUTH    SUNNY     82  61  48 CALM      29.89F
WAHOO          FAIR      81  60  48 SE8       29.88S
$$




USA.gov is the U.S. government's official web portal to all federal, state and local government web resources and services.